This is the latest recevied weather packets stored in our database for station/object F1ZVN-13. If no packets are shown the sender has not sent any weather packets the latest 10 day(s).
| Time | Temp. | Humidity | Pressure | Rain* | Wind** | Luminosity | Snow |
|---|---|---|---|---|---|---|---|
| 1778255588 | 8.33° C | 69% | 1004.5 hPa | 0 mm | 0 m/s | - | - |
| 1778255471 | 8.33° C | 68% | 1004.5 hPa | 0 mm | 0 m/s | - | - |
| 1778255345 | 7.78° C | 71% | 1004.5 hPa | 0 mm | 0 m/s | - | - |
| 1778255247 | 7.78° C | 70% | 1004.6 hPa | 0 mm | 0 m/s | - | - |
| 1778255103 | 7.22° C | 69% | 1004.5 hPa | 0 mm | 0 m/s | - | - |
| 1778255021 | 7.78° C | 70% | 1004.6 hPa | 0 mm | 0 m/s | - | - |
| 1778254983 | 7.78° C | 70% | 1004.6 hPa | 0 mm | 0 m/s | - | - |
| 1778254861 | 7.78° C | 71% | 1004.6 hPa | 0 mm | 0 m/s | - | - |
| 1778254741 | 7.78° C | 72% | 1004.6 hPa | 0 mm | 0 m/s | - | - |
| 1778254618 | 7.78° C | 73% | 1004.6 hPa | 0 mm | 0 m/s | - | - |
| 1778254530 | 7.78° C | 73% | 1004.6 hPa | 0 mm | 0 m/s | - | - |
| 1778254498 | 7.78° C | 73% | 1004.6 hPa | 0 mm | 0 m/s | - | - |
| 1778254376 | 7.78° C | 72% | 1004.6 hPa | 0 mm | 0 m/s | - | - |
| 1778254256 | 8.33° C | 71% | 1004.5 hPa | 0 mm | 0 m/s | - | - |
| 1778254133 | 8.33° C | 73% | 1004.6 hPa | 0 mm | 0 m/s | - | - |
| 1778254014 | 8.33° C | 72% | 1004.5 hPa | 0 mm | 0 m/s | - | - |
| 1778253891 | 7.78° C | 72% | 1004.5 hPa | 0 mm | 0 m/s | - | - |
| 1778253777 | 7.78° C | 74% | 1004.6 hPa | 0 mm | 0 m/s | - | - |
| 1778253649 | 7.78° C | 73% | 1004.6 hPa | 0 mm | 0 m/s | - | - |
| 1778253528 | 7.22° C | 76% | 1004.6 hPa | 0 mm | 0 m/s | - | - |
| 1778253409 | 7.22° C | 77% | 1004.5 hPa | 0 mm | 0 m/s | - | - |
| 1778253354 | 6.67° C | 79% | 1004.5 hPa | 0 mm | 0 m/s | - | - |
| 1778253292 | 6.67° C | 79% | 1004.5 hPa | 0 mm | 0 m/s | - | - |
| 1778253164 | 6.11° C | 82% | 1004.7 hPa | 0 mm | 0 m/s | - | - |
| 1778253043 | 5.56° C | 80% | 1004.7 hPa | 0 mm | 0 m/s | - | - |
* Rain latest hour (hover to see other rain measurements)
** Current wind speed in m/s (hover to see current wind gust speed)